Tracking 27086 objects as of 23-Mar-2023
HD Live streaming from Space Station
objects crossing your sky now

SL-16 DEB

Track SL-16 DEB now!
10-day predictions


NORAD ID: 39301
Int'l Code: 1992-093JS
Perigee: 837.8 km
Apogee: 889.3 km
Inclination: 70.9 °
Period: 102.1 minutes
Semi major axis: 7234 km
RCS: 0.0003 m2 (small)
Launch date: December 25, 1992
Source: Commonwealth of Independent States (former USSR) (CIS)
Launch site: TYURATAM MISSILE AND SPACE COMPLEX (TTMTR)

Note: This is SATELLITE DEBRIS
Your satellite tracking list
Your tracking list is empty




NASA's NSSDC Master Catalog

Two Line Element Set (TLE):
1 39301U 92093JS  23076.50631772  .00000036  00000-0  46913-4 0  9994
2 39301  70.8813 158.0702 0035656 258.9744 100.7364 14.10864620493966
Source of the keplerian elements: AFSPC